|
NORAD ID: 8645 Int'l Code: 1976-011A
Perigee: 984.4 km
Apogee: 1,015.6 km
Inclination: 83.0 °
Period: 105.0 minutes
Semi major axis: 7370 km
Launch date: February 3, 1976
Source: Commonwealth of Independent States (former USSR) (CIS)
Two Line Element Set (TLE):
1 08645U 76011A 13168.51596917 .00000045 00000-0 32724-4 0 3007
2 08645 082.9719 000.9324 0021164 202.8886 214.3861 13.71880188870620
Source:
NASA's NSSDC Master Catalog entry for COSMOS 800
|